Regional Weather Roundup
Issued by NWS

Home | Current Version | Previous Version | Graphics & Text | Print | Product List | Glossary On
Versions: 1 2 3 4 5 6 7 8 9 10 11 12 13 14 15 16 17 18 19 20 21 22 23 24 25 26 27 28 29 30 31 32 33 34 35 36 37 38 39 40 41 42 43 44 45 46 47 48 49 50
000
ASUS43 KMKX 211400
RWRWI

WISCONSIN REGIONAL WEATHER ROUNDUP
NATIONAL WEATHER SERVICE MILWAUKEE/SULLIVAN WI
800 AM CST SUN DEC 21 2014

NOTE: "FAIR" INDICATES FEW OR NO CLOUDS BELOW 12,000 FEET WITH NO
SIGNIFICANT WEATHER AND/OR OBSTRUCTIONS TO VISIBILITY.

WIZ001-002-006>008-014>016-023>028-211500-
NORTHWEST WISCONSIN

CITY           SKY/WX    TMP DP  RH WIND       PRES   REMARKS
SUPERIOR ARPT  CLOUDY    32  29  87 S6        29.94F WCI  26
ASHLAND        CLOUDY    31  27  85 SE3       29.96F
HAYWARD        CLOUDY    30  27  88 S9G20     29.93F FOG     WCI  22
SIREN          CLOUDY    32  30  92 S7        29.92F FOG     WCI  25
CUMBERLAND     CLOUDY    30  28  93 SE12G17   29.93F FOG     WCI  21
RICE LAKE      CLOUDY    31  29  94 SE9       29.96F FOG     WCI  23
CHETEK         CLOUDY    30  29  95 SE12      29.95F FOG     WCI  21
LADYSMITH      CLOUDY    31  29  92 SE8       29.99F FOG     WCI  24
EAU CLAIRE     CLOUDY    32  28  85 SE8       29.97F FOG     WCI  25
MENOMONIE      CLOUDY    32  31  96 SE9       29.97F FOG     WCI  24
NEW RICHMOND   CLOUDY    32  32 100 SE9       29.93S FOG     WCI  24
OSCEOLA        CLOUDY    32  32 100 SE12      29.95S FOG     WCI  23
$$

WIZ003>005-009-010-017-018-211500-
NORTH CENTRAL WISCONSIN

CITY           SKY/WX    TMP DP  RH WIND       PRES   REMARKS
MANITOWISH WTR CLOUDY    28  28 100 S9        29.98F FOG     WCI  19
ARBOR VITAE    CLOUDY    29  28  93 S7        30.00F FOG     WCI  22
WOODRUFF       CLOUDY    29  28  93 S7        30.00F FOG     WCI  22
RHINELANDER    CLOUDY    27  26  96 SE8       30.02F FOG     WCI  19
EAGLE RIVER    MIX PCPN  27  27 100 S5        30.01F VSB 1   WCI  21
LAND O LAKES   CLOUDY    28  27  99 S6        30.01F FOG     WCI  21
PHILLIPS       CLOUDY    29  26  91 SE9       29.98F WCI  20
TOMAHAWK       CLOUDY    28  27  96 CALM      30.02F FOG
MEDFORD        CLOUDY    28  27  96 SE8       30.00F FOG     WCI  20
MERRILL        CLOUDY    29  28  98 SE7       30.04S FOG     WCI  21
$$

WIZ029-030-035-036-043>047-211500-
CENTRAL WISCONSIN

CITY           SKY/WX    TMP DP  RH WIND       PRES   REMARKS
WAUSAU         CLOUDY    29  27  92 SE8       30.03F FOG     WCI  21
MOSINEE        CLOUDY    28  28 100 SE8       30.05F FOG     WCI  20
MARSHFIELD     CLOUDY    30  28  92 S10       30.02F FOG     WCI  21
STEVENS POINT  CLOUDY    28  27  96 SE7       30.07F FOG     WCI  21
WAUPACA        CLOUDY    32  29  89 SE5       30.11F FOG     WCI  27
WAUTOMA        NOT AVBL
WISC RAPIDS    CLOUDY    30  27  88 SE9       30.06F FOG     WCI  22
CAMP DOUGLAS   NOT AVBL
$$

WIZ011>013-019>022-031-037>040-048>050-211500-
NORTHEAST WISCONSIN

CITY           SKY/WX    TMP DP  RH WIND       PRES   REMARKS
ANTIGO         FOG       26  26 100 SE8       30.05F VSB 1   WCI  18
SHAWANO        CLOUDY    32  28  87 S5        30.12F FOG     WCI  27
OCONTO         CLOUDY    30  28  92 SE5       30.14S WCI  25
STURGEON BAY   CLOUDY    30  25  80 S10       30.16S WCI  21
GREEN BAY      CLOUDY    31  28  89 SE6       30.13F FOG     WCI  25
MANITOWOC      NOT AVBL
APPLETON       CLOUDY    30  30 100 S9        30.12F FOG     WCI  22
CLINTONVILLE   CLOUDY    32  28  86 S5        30.11F FOG     WCI  27
OSHKOSH        CLOUDY    32  28  85 S9        30.12F FOG     WCI  24
$$

WIZ032>034-041-042-053>061-211500-
SOUTHWEST WISCONSIN

CITY           SKY/WX    TMP DP  RH WIND       PRES   REMARKS
LA CROSSE      CLOUDY    35  32  88 S10       30.02F FOG     WCI  27
SPARTA         CLOUDY    33  31  94 SE14      30.04F FOG     WCI  23
VIROQUA        CLOUDY    32  32 100 SE10G16   30.02F VSB 1/4 WCI  23
BOSCOBEL       CLOUDY    36  32  85 VRB5      30.06F FOG     WCI  32
PRAIRIE DU CHI CLOUDY    35  33  92 SE5       30.05F FOG     WCI  31
PLATTEVILLE    CLOUDY    33  33  98 SE12      30.08F WCI  25
$$

WIZ056-057-062-063-064-067-068-211500-
SOUTH CENTRAL WISCONSIN

CITY           SKY/WX    TMP DP  RH WIND       PRES   REMARKS
REEDSBURG      CLOUDY    31  31  99 SE7       30.06F FOG     WCI  24
BARABOO/DELLS  CLOUDY    31  31  96 S6        30.08S FOG     WCI  26
LONE ROCK      NOT AVBL
MINERAL POINT  FOG       34  32  93 SE10      30.07F VSB 1   WCI  26
MADISON        CLOUDY    32  30  92 S13       30.11F FOG     WCI  22
MIDDLETON      CLOUDY    33  33  99 S8        30.10F WCI  26
WATERTOWN      CLOUDY    32  32 100 S8        30.14S FOG     WCI  24
MONROE         CLOUDY    32  32 100 S10       30.10F FOG     WCI  24
JANESVILLE     CLOUDY    34  30  86 S9        30.14F FOG     WCI  26
$$

WIZ051-052-058>065-066-070>072-211500-
SOUTHEAST WISCONSIN

CITY           SKY/WX    TMP DP  RH WIND       PRES   REMARKS
MILWAUKEE      CLOUDY    32  26  78 S10       30.17F WCI  24
WAUKESHA       CLOUDY    30  27  86 S7        30.16F FOG     WCI  23
MILWAUKEE/TIMM CLOUDY    32  27  80 S6        30.17F HAZE    WCI  26
RACINE         CLOUDY    33  27  78 S9        30.19F WCI  25
BURLINGTON     CLOUDY    31  28  89 S7        30.17S FOG     WCI  24
KENOSHA        CLOUDY    33  28  81 S8        30.18F WCI  26
FOND DU LAC    CLOUDY    32  28  85 S10       30.12F FOG     WCI  24
SHEBOYGAN      CLOUDY    32  28  85 S7        30.15F FOG     WCI  26
WEST BEND      CLOUDY    32  28  86 S6        30.15F FOG     WCI  26
JUNEAU         CLOUDY    31  29  94 SE9       30.14F FOG     WCI  23
$$

LSZ147-162-211500-
LAKE SUPERIOR

STATION/POSITION TIME  TEMP    WIND        PRES    WAVE
                       AIR SEA DIR/SP/G            HT/PER
                 (UTC) (F)     (DEG/KT/KT) (MB)    (FT/S)
DEVILS ISLAND    1300   32     190/  7/ 12 1016.6F
PORT WING        1300   32     120/  2/  4 1014.9F
SAXON HARBOR     1340   32     160/  3/  6 1015.2F
$$

LMZ867-665-643>646-211500-
LAKE MICHIGAN

STATION/POSITION TIME  TEMP    WIND        PRES    WAVE
                       AIR SEA DIR/SP/G            HT/PER
                 (UTC) (F)     (DEG/KT/KT) (MB)    (FT/S)
CHAMBERS ISLAND  1300   32     160/  3/  7 1021.3F
NORTHPORT PIER   1338   31     180/  2/  4 1021.0F
SISTER BAY       1213          210/  7/  7   N/A
ALGOMA LAKESHORE 1214          240/  8/ 10   N/A
KEWAUNEE LAKESHO 1300   32     190/  9/ 10 1020.5F
SHEBOYGAN LAKESH 1300   34 34  190/ 11/ 13 1022.6F
PORT WASHINGTON  1340   34     180/  8/ 13 1022.4F
MILWAUKEE LAKESH 1300   33     170/  7/  8   N/A
KENOSHA   LAKESH 1300   34     180/  9/ 13 1022.4S
$$

TC  - TEMPERATURE IN CELSIUS
VSB - VISIBILITY IN STATUTE MILES
WCI - WIND CHILL INDEX
HX  - HEAT INDEX



USA.gov is the U.S. government's official web portal to all federal, state and local government web resources and services.